Wind_Speed
48 48 47 46 46 45 44 43 42 41 41 40 39 39 38 38 38 38 37 37 36 36 36 36 35 35 36 35 35 35 35 34 34 33 33 33 32 32 32 31 30 30 30
50 49 49 48 47 47 46 45 44 42 41 40 41 41 40 40 40 40 39 39 39 38 38 37 37 37 37 37 36 36 36 35 35 35 35 35 35 35 34 34 33 32 32
51 51 50 50 49 49 48 47 46 45 44 43 42 42 41 41 40 40 40 40 40 40 39 38 38 38 37 37 37 37 37 37 37 37 37 36 36 36 36 36 36 35 34
51 51 51 51 50 50 50 49 48 47 46 45 45 43 42 42 41 41 41 41 41 41 40 39 39 39 39 39 38 38 39 39 39 39 39 38 38 38 38 37 37 37 36
51 51 51 50 50 50 51 51 50 49 48 47 46 45 44 43 42 42 42 42 42 42 42 41 40 40 40 40 39 39 39 40 39 39 39 39 39 38 39 38 38 38 38
50 50 51 51 51 51 51 51 50 50 49 48 47 47 46 45 44 43 43 43 42 42 42 41 41 41 41 41 41 41 41 40 40 41 41 41 40 39 39 39 39 39 39
50 50 50 50 50 51 51 51 51 50 50 49 48 47 47 46 45 44 44 43 43 42 42 42 42 42 42 42 42 42 42 42 42 42 41 41 41 41 40 40 40 40 40
49 49 49 49 49 49 49 49 49 50 50 50 49 48 48 46 46 45 45 45 44 43 43 43 43 43 43 43 43 42 43 43 43 42 43 43 42 42 42 41 41 40 41
48 47 48 48 48 49 49 48 48 48 48 49 49 49 48 47 46 46 45 45 45 44 44 44 44 43 43 43 43 43 43 43 43 43 43 43 43 43 43 42 42 41 41
48 48 48 47 48 48 48 48 48 48 48 47 47 47 47 47 47 46 46 45 45 45 44 44 44 43 43 43 43 44 43 44 44 44 44 44 44 44 44 44 43 43 43
47 48 48 47 47 47 48 48 48 48 48 48 47 47 47 46 46 46 47 46 46 45 45 44 44 44 44 43 43 43 44 44 44 44 44 45 45 45 45 45 44 44 44
47 47 47 48 48 48 48 48 48 48 48 48 48 47 47 47 47 47 47 47 47 47 46 46 46 45 44 44 44 44 44 45 45 45 45 45 46 46 45 45 44 44 44
45 47 47 47 48 49 49 48 48 49 49 49 49 48 48 48 48 47 47 47 47 47 47 47 47 46 46 45 45 45 45 45 45 45 45 46 47 46 46 46 45 45 45
44 46 47 47 48 48 49 49 50 50 50 49 49 49 49 49 49 48 48 48 47 47 48 48 47 47 47 46 45 45 45 45 45 45 45 46 47 47 47 47 47 47 46
43 45 46 47 48 48 49 49 49 50 50 51 50 50 50 50 49 49 49 49 49 48 48 48 48 48 47 47 47 46 46 45 45 45 45 45 46 46 46 47 47 47 47
43 44 45 46 47 48 49 49 49 49 49 50 51 51 51 51 50 50 50 50 50 49 48 48 49 49 49 49 48 48 47 47 46 46 46 46 46 46 46 46 47 48 49
41 43 45 46 47 47 48 48 48 48 49 49 49 50 50 51 51 51 50 50 50 50 49 49 49 49 50 49 49 49 48 48 47 47 47 47 47 47 47 47 47 48 48
39 40 43 44 45 46 47 47 47 47 48 48 48 48 48 49 49 50 50 50 50 50 50 49 49 49 49 49 49 50 50 49 48 47 47 47 47 47 47 47 48 48 48
38 39 40 42 43 44 45 45 46 46 46 47 47 47 47 47 48 48 49 49 49 49 49 48 48 48 48 49 50 50 50 50 49 48 48 47 47 47 47 47 47 47 48
38 39 39 40 41 42 42 43 43 43 44 45 45 45 46 46 46 47 47 48 48 48 47 47 47 47 46 47 48 48 48 48 48 48 48 49 49 48 48 48 47 47 48
36 37 38 38 39 40 40 41 41 42 42 43 44 44 44 45 46 46 46 46 46 47 47 46 46 46 45 45 45 46 46 45 46 47 48 48 48 49 48 48 47 47 47
35 36 37 38 39 39 39 39 40 41 41 42 42 43 43 44 44 44 44 44 45 45 45 45 45 45 45 45 45 45 44 44 44 45 45 47 47 48 48 47 47 47 47
35 35 36 37 37 38 38 39 39 40 40 40 41 41 42 42 42 42 43 43 43 44 44 45 44 44 45 45 45 45 45 44 44 44 44 45 45 45 46 47 47 48 48
33 33 34 35 36 36 37 37 38 38 39 39 39 39 40 40 41 42 42 42 42 43 43 44 44 44 44 44 44 44 44 44 44 44 44 44 44 44 45 46 47 48 49
31 32 33 34 34 34 35 36 37 37 37 37 37 37 38 37 38 39 40 41 42 42 43 44 44 44 44 43 44 44 44 44 44 44 44 44 45 45 46 46 47 47 48
29 29 30 31 32 33 33 34 35 36 36 36 36 36 36 37 37 37 38 39 40 41 42 42 43 43 44 44 44 43 43 43 42 43 43 43 44 44 45 46 46 47 47
Wind_Direction
239 239 239 239 239 239 239 239 239 240 241 242 242 243 244 244 245 245 245 246 246 247 248 249 251 251 251 251 252 252 253 253 253 254 255 256 257 259 261 262 264 265 265
239 239 239 238 238 239 239 239 239 240 241 242 242 243 244 244 245 246 247 247 247 247 248 249 251 252 252 252 253 253 253 252 253 254 256 256 258 259 261 263 264 266 266
240 239 239 239 238 239 239 240 240 240 240 241 242 243 244 245 246 247 247 248 249 249 248 250 252 252 252 253 254 255 254 253 254 255 256 257 257 259 261 263 265 266 267
239 239 239 239 239 238 239 240 240 241 241 242 243 244 245 246 247 247 247 248 249 249 249 251 252 252 253 254 254 255 255 255 255 256 257 258 258 259 261 263 265 266 267
239 239 239 239 239 239 239 240 240 241 242 243 244 244 245 246 247 247 248 248 249 250 251 252 253 253 254 254 254 255 255 256 256 257 257 258 259 260 261 262 264 266 266
238 238 238 238 238 239 239 240 240 241 242 242 244 244 245 246 247 247 248 248 249 250 251 252 253 254 255 255 256 256 257 257 257 258 257 258 259 260 262 263 264 266 267
237 237 238 238 239 239 239 240 240 240 241 242 243 244 245 246 247 247 247 248 249 249 251 252 253 254 255 256 257 257 257 257 258 258 258 258 259 260 262 263 265 266 267
236 236 236 237 237 238 238 239 239 240 241 241 242 243 244 245 246 246 247 248 248 249 250 252 253 254 255 256 257 257 257 258 258 257 257 257 258 259 260 262 265 267 267
235 235 236 236 236 237 237 238 239 239 240 241 242 243 244 245 246 246 247 247 248 249 251 252 253 254 254 255 256 256 257 258 258 258 257 257 257 258 260 262 265 267 268
234 235 235 236 236 236 237 238 239 239 239 240 241 242 243 244 246 246 247 248 248 249 250 251 252 254 255 255 256 257 258 258 258 259 258 258 258 258 259 262 265 267 268
235 236 235 236 236 236 237 238 238 239 239 240 241 241 243 244 245 246 247 248 249 250 250 251 253 254 255 256 256 258 258 258 259 258 258 258 259 259 259 261 265 266 267
237 236 236 236 236 237 237 238 238 239 240 240 241 241 242 244 245 246 247 248 249 250 251 252 253 254 255 255 256 257 258 258 258 258 258 259 259 261 262 262 265 266 266
237 237 237 237 237 237 237 238 239 240 240 241 242 242 243 244 245 247 248 248 249 250 251 252 253 254 254 255 256 257 258 258 258 258 258 259 259 260 262 263 265 265 266
237 236 237 237 238 238 238 239 239 240 241 242 242 242 243 244 245 247 248 248 249 250 251 252 253 254 254 254 255 256 257 257 257 258 259 259 260 261 262 263 264 265 266
236 236 237 238 238 239 239 239 240 240 241 242 242 242 243 244 246 247 248 248 249 250 251 252 252 253 254 255 255 256 257 257 258 259 260 261 261 261 262 264 264 265 266
237 237 237 238 239 240 240 240 240 240 241 242 242 243 243 245 246 246 247 248 249 250 251 251 252 253 254 255 256 256 257 258 259 260 261 261 261 263 264 265 265 266 266
237 237 237 238 239 239 240 241 241 241 242 243 243 244 244 245 246 246 247 247 248 249 250 252 253 254 255 255 256 257 258 259 260 260 261 261 262 264 265 266 266 267 267
237 236 236 237 238 239 240 240 241 242 242 243 243 244 245 246 247 247 248 248 249 249 250 252 254 254 255 256 256 257 259 259 259 260 260 261 262 263 264 266 267 267 268
239 238 237 238 239 239 240 240 241 242 242 243 244 244 245 246 247 248 248 249 249 249 250 251 253 254 255 255 256 258 258 259 259 259 260 261 262 263 264 266 266 266 267
241 240 239 239 240 240 240 240 241 242 243 244 244 245 244 245 246 248 249 249 248 249 250 251 252 253 255 255 256 256 257 258 259 260 260 261 263 263 264 266 266 266 268
241 240 240 240 240 240 240 240 241 242 243 244 245 246 246 246 246 247 248 249 249 248 249 250 251 252 253 254 255 256 257 258 259 261 262 263 264 264 265 266 266 268 269
243 242 242 242 242 242 241 241 242 243 244 244 245 245 246 246 246 247 248 249 249 249 249 250 251 251 252 253 254 256 258 259 261 262 263 263 264 265 266 267 268 269 270
245 243 244 244 243 242 242 243 243 244 244 245 245 245 245 246 246 247 248 248 249 249 249 249 250 251 252 253 255 256 258 260 261 263 264 264 265 266 267 268 269 269 270
242 243 244 244 242 242 242 243 243 244 244 245 245 245 246 247 247 247 247 248 248 248 249 249 250 251 252 253 254 256 257 259 261 262 264 266 267 268 269 269 269 269 270
241 242 244 243 241 240 241 242 243 245 244 245 245 244 245 246 247 247 247 248 249 249 249 249 250 251 252 253 255 257 258 260 262 264 265 266 268 269 269 270 271 271 272
242 241 241 241 240 239 241 241 243 244 244 243 244 245 245 245 246 247 247 248 248 249 249 250 250 251 252 253 255 257 259 261 262 264 266 267 268 270 271 272 272 272 272
Height
5714 5718 5723 5728 5733 5737 5742 5746 5750 5754 5758 5761 5765 5768 5771 5775 5778 5781 5784 5787 5789 5792 5795 5798 5801 5803 5806 5808 5810 5812 5814 5816 5818 5820 5822 5824 5825 5827 5828 5829 5830 5831 5832
5703 5708 5713 5718 5723 5728 5732 5737 5741 5745 5749 5753 5756 5760 5763 5766 5769 5772 5776 5779 5782 5784 5787 5790 5793 5795 5798 5800 5802 5804 5806 5809 5811 5813 5815 5817 5819 5820 5821 5822 5823 5824 5825
5692 5697 5702 5707 5713 5718 5722 5727 5732 5736 5740 5743 5747 5751 5754 5758 5761 5764 5767 5770 5773 5776 5779 5782 5784 5787 5790 5792 5794 5797 5799 5801 5803 5805 5807 5809 5811 5812 5814 5815 5816 5817 5818
5680 5685 5691 5696 5702 5707 5712 5717 5721 5726 5730 5734 5738 5742 5745 5749 5752 5755 5758 5762 5765 5768 5770 5773 5776 5779 5781 5784 5786 5788 5790 5792 5795 5797 5799 5801 5803 5805 5806 5807 5808 5809 5810
5667 5674 5680 5685 5691 5696 5701 5706 5711 5715 5720 5724 5728 5732 5736 5739 5743 5746 5749 5753 5756 5759 5762 5764 5767 5770 5772 5775 5777 5779 5781 5784 5786 5788 5790 5792 5794 5796 5797 5799 5800 5801 5802
5656 5662 5668 5673 5679 5684 5689 5695 5700 5705 5709 5714 5718 5722 5726 5730 5733 5737 5740 5743 5746 5749 5752 5755 5758 5760 5763 5765 5768 5770 5772 5774 5777 5779 5781 5783 5785 5787 5788 5790 5791 5792 5793
5644 5650 5656 5662 5668 5673 5678 5683 5689 5694 5699 5703 5707 5712 5716 5719 5723 5727 5730 5733 5737 5740 5743 5746 5748 5751 5753 5756 5758 5760 5762 5765 5767 5769 5771 5773 5775 5777 5779 5780 5781 5782 5783
5633 5639 5645 5651 5656 5662 5667 5672 5677 5682 5687 5692 5697 5701 5705 5709 5713 5716 5720 5724 5727 5730 5733 5736 5738 5741 5743 5745 5748 5750 5752 5754 5757 5758 5761 5763 5765 5767 5769 5770 5772 5773 5774
5622 5628 5634 5640 5645 5651 5656 5662 5667 5671 5676 5681 5686 5690 5694 5698 5702 5706 5710 5713 5717 5720 5723 5726 5728 5731 5733 5735 5738 5740 5742 5744 5746 5748 5750 5752 5755 5757 5759 5761 5762 5763 5764
5612 5617 5623 5629 5635 5640 5645 5650 5656 5661 5665 5670 5674 5679 5683 5687 5691 5695 5699 5703 5706 5709 5712 5715 5718 5721 5723 5725 5727 5729 5731 5733 5736 5738 5740 5742 5744 5746 5749 5750 5751 5753 5754
5601 5607 5613 5618 5624 5629 5635 5640 5645 5650 5654 5659 5664 5668 5672 5676 5680 5684 5688 5692 5695 5698 5702 5705 5708 5710 5713 5715 5717 5719 5721 5723 5725 5727 5729 5731 5734 5736 5738 5740 5741 5742 5743
5590 5596 5602 5607 5613 5619 5624 5629 5634 5639 5643 5648 5652 5657 5661 5665 5669 5673 5677 5680 5684 5687 5691 5694 5697 5700 5702 5704 5707 5709 5710 5713 5715 5716 5718 5720 5723 5725 5727 5729 5731 5731 5732
5579 5585 5590 5596 5602 5607 5612 5617 5622 5627 5632 5636 5641 5645 5650 5654 5658 5662 5665 5669 5672 5676 5679 5682 5686 5688 5691 5693 5696 5698 5700 5702 5704 5705 5707 5709 5712 5714 5716 5718 5719 5720 5721
5568 5574 5579 5585 5590 5595 5600 5605 5610 5615 5620 5625 5629 5634 5638 5642 5646 5650 5653 5657 5661 5664 5667 5671 5674 5677 5679 5682 5684 5686 5688 5690 5692 5694 5696 5698 5700 5702 5704 5706 5707 5708 5709
5558 5563 5568 5573 5578 5583 5588 5593 5598 5603 5608 5612 5617 5621 5625 5630 5633 5637 5641 5645 5648 5652 5655 5658 5662 5665 5668 5670 5673 5675 5677 5679 5681 5683 5685 5687 5689 5690 5692 5694 5696 5697 5698
5548 5552 5557 5562 5567 5572 5577 5582 5586 5591 5595 5600 5604 5608 5612 5617 5621 5624 5628 5632 5636 5639 5643 5646 5649 5652 5655 5658 5660 5662 5665 5667 5669 5671 5673 5675 5677 5679 5680 5682 5683 5684 5685
5537 5541 5546 5551 5555 5560 5565 5570 5575 5579 5583 5587 5591 5596 5600 5604 5608 5612 5616 5619 5623 5627 5630 5634 5637 5640 5643 5645 5648 5650 5652 5655 5657 5659 5661 5663 5665 5666 5667 5669 5670 5671 5672
5527 5531 5535 5540 5544 5548 5553 5558 5562 5567 5571 5575 5579 5583 5587 5591 5595 5599 5603 5607 5611 5614 5618 5621 5624 5627 5630 5632 5635 5637 5639 5642 5644 5647 5649 5651 5652 5654 5655 5656 5657 5658 5659
5517 5521 5525 5529 5533 5537 5542 5546 5551 5555 5559 5563 5567 5571 5575 5579 5583 5587 5591 5594 5598 5602 5605 5608 5611 5614 5617 5620 5622 5624 5627 5629 5631 5634 5636 5638 5639 5641 5642 5643 5645 5646 5647
5507 5510 5514 5518 5523 5526 5530 5535 5539 5543 5548 5552 5556 5560 5563 5567 5571 5575 5578 5582 5586 5589 5593 5596 5599 5602 5605 5607 5609 5611 5614 5617 5619 5621 5623 5625 5627 5628 5629 5630 5632 5633 5634
5497 5501 5504 5508 5512 5516 5520 5524 5528 5532 5536 5540 5544 5548 5552 5555 5559 5563 5566 5570 5573 5577 5581 5584 5587 5590 5593 5595 5597 5599 5601 5604 5606 5608 5610 5612 5613 5615 5616 5617 5619 5620 5620
5488 5491 5495 5498 5502 5506 5510 5514 5518 5522 5525 5529 5533 5536 5540 5543 5547 5551 5554 5558 5561 5565 5568 5572 5575 5578 5581 5583 5585 5587 5590 5592 5593 5595 5597 5598 5600 5601 5602 5604 5605 5606 5607
5479 5482 5485 5489 5493 5496 5500 5504 5508 5511 5515 5518 5522 5525 5528 5532 5536 5539 5543 5546 5549 5553 5556 5560 5563 5566 5569 5571 5573 5575 5577 5579 5581 5583 5584 5585 5587 5588 5589 5590 5591 5592 5593
5470 5473 5476 5479 5483 5487 5490 5494 5497 5501 5505 5508 5511 5514 5518 5521 5524 5527 5531 5534 5538 5541 5544 5548 5551 5554 5557 5559 5561 5563 5565 5567 5569 5570 5572 5573 5574 5575 5576 5577 5577 5578 5579
5461 5464 5467 5470 5474 5477 5481 5484 5488 5491 5494 5498 5501 5504 5507 5510 5513 5516 5519 5522 5526 5529 5532 5536 5539 5542 5545 5547 5549 5551 5553 5555 5557 5558 5559 5560 5561 5562 5563 5563 5563 5564 5564
5453 5456 5459 5462 5465 5468 5471 5475 5478 5481 5484 5488 5491 5494 5497 5499 5502 5505 5508 5511 5514 5517 5520 5524 5527 5530 5533 5535 5537 5539 5541 5543 5544 5546 5547 5548 5549 5549 5549 5549 5549 5549 5549